User: anonymous   Login
Location: American Medical Response
(33.3472°N, 96.5511°W)
Time: 20:47:24
(UTC+00:00)
Language:

Sich 1 - Orbit

View from above orbital plane
View from above orbital plane
View from above satellite
View from above satellite

Ground track
Ground track

The orbit data is extracted from the following two-line orbital elements,

1 23657U 95046A   22145.12455983  .00001321  00000-0  14551-3 0  9994
2 23657  82.5280   6.3381 0020608 229.1215 130.8216 14.86685043445255
Epoch (UTC): 25 May 2022 02:59:21
Eccentricity: 0.0020608
inclination: 82.5280°
perigee height: 594 km
apogee height: 623 km
right ascension of ascending node: 6.3381°
argument of perigee: 229.1215°
revolutions per day: 14.86685043
mean anomaly at epoch: 130.8216°
orbit number at epoch: 44525

The dashed part of the orbit path shows where the satellite is in the earth's shadow,  

DLR